Location: Praha
(50.0830°N, 14.4670°E)
Time: 16:31:12
(UTC+01:00)

ISS - Pass Details

Date: 07 December 2018
Orbit: 401 x 408 km, 51.6° (Epoch: 12 December)

Event Time Altitude Azimuth Distance (km) Brightness Sun altitude
Rises 18:27:58 0° 287° (WNW) 2,319 1.1 -22.6°
Reaches altitude 10° 18:30:04 10° 283° (WNW) 1,457 -0.1 -22.9°
Enters shadow 18:32:31 43° 256° (WSW) 581 -2.6 -23.3°
